TimeEST,TemperatureF,Dew PointF,Humidity,Sea Level PressureIn,VisibilityMPH,Wind Direction,Wind SpeedMPH,Gust SpeedMPH,PrecipitationIn,Events,Conditions,WindDirDegrees,DateUTC
12:19 AM,33.8,32.0,93,30.07,0.8,NNW,4.6,-,0.03,Snow,Snow,340,2013-01-18 05:19:00
12:36 AM,33.8,32.0,93,30.03,1.2,North,6.9,-,0.04,Snow,Snow,360,2013-01-18 05:36:00
12:56 AM,33.8,32.0,93,30.06,2.0,NNW,4.6,-,N/A,Snow,Light Snow,330,2013-01-18 05:56:00
1:16 AM,33.8,33.8,100,30.08,2.5,NNW,5.8,-,0.05,Snow,Light Snow,330,2013-01-18 06:16:00
1:36 AM,35.6,33.8,93,30.09,4.0,NNW,6.9,-,0.07,Snow,Light Snow,340,2013-01-18 06:36:00
1:56 AM,35.6,33.8,93,30.08,4.0,North,9.2,-,N/A,Snow,Light Snow,360,2013-01-18 06:56:00
2:16 AM,35.6,33.8,93,30.10,4.0,North,4.6,-,N/A,,Light Drizzle,350,2013-01-18 07:16:00
2:36 AM,35.6,33.8,93,30.10,4.0,NNW,4.6,-,N/A,,Overcast,330,2013-01-18 07:36:00
2:56 AM,35.6,33.8,93,30.11,5.0,NNW,5.8,-,N/A,,Mostly Cloudy,330,2013-01-18 07:56:00
3:16 AM,37.4,33.8,87,30.11,5.0,NNW,6.9,-,N/A,,Scattered Clouds,330,2013-01-18 08:16:00
3:56 AM,37.4,35.6,93,30.13,10.0,WNW,10.4,-,N/A,,Scattered Clouds,300,2013-01-18 08:56:00
4:17 AM,37.4,35.6,93,30.14,10.0,NW,9.2,-,N/A,,Scattered Clouds,310,2013-01-18 09:17:00
4:36 AM,39.2,33.8,81,30.15,10.0,NW,8.1,17.3,N/A,,Clear,320,2013-01-18 09:36:00
4:56 AM,39.2,32.0,75,30.16,10.0,NNW,12.7,17.3,N/A,,Clear,330,2013-01-18 09:56:00
5:16 AM,39.2,32.0,75,30.17,10.0,NNW,13.8,19.6,N/A,,Clear,330,2013-01-18 10:16:00
5:36 AM,39.2,30.2,70,30.18,10.0,NW,13.8,20.7,N/A,,Clear,320,2013-01-18 10:36:00
5:58 AM,39.2,28.4,65,30.20,10.0,NNW,10.4,18.4,N/A,,Clear,330,2013-01-18 10:58:00
6:17 AM,39.2,28.4,65,30.22,10.0,NW,12.7,20.7,N/A,,Scattered Clouds,320,2013-01-18 11:17:00
6:36 AM,39.2,28.4,65,30.24,10.0,NW,8.1,-,N/A,,Clear,320,2013-01-18 11:36:00
6:55 AM,39.2,28.4,65,30.25,10.0,NW,10.4,19.6,N/A,,Clear,320,2013-01-18 11:55:00
7:16 AM,39.2,28.4,65,30.27,10.0,NW,6.9,-,N/A,,Clear,320,2013-01-18 12:16:00
7:36 AM,39.2,28.4,65,30.29,10.0,NNW,5.8,-,N/A,,Clear,330,2013-01-18 12:36:00
7:56 AM,39.2,28.4,65,30.30,10.0,NNW,8.1,-,N/A,,Clear,340,2013-01-18 12:56:00
8:16 AM,39.2,26.6,61,30.32,10.0,NNW,18.4,27.6,N/A,,Scattered Clouds,330,2013-01-18 13:16:00
8:37 AM,39.2,26.6,61,30.34,10.0,NNW,13.8,23.0,N/A,,Scattered Clouds,330,2013-01-18 13:37:00
8:56 AM,39.2,26.6,61,30.36,10.0,NNW,12.7,19.6,N/A,,Mostly Cloudy,340,2013-01-18 13:56:00
9:16 AM,39.2,26.6,61,30.38,10.0,North,13.8,20.7,N/A,,Mostly Cloudy,360,2013-01-18 14:16:00
9:36 AM,39.2,26.6,61,30.40,10.0,North,20.7,26.5,N/A,,Scattered Clouds,350,2013-01-18 14:36:00
9:56 AM,39.2,23.0,52,30.42,10.0,North,17.3,28.8,N/A,,Clear,350,2013-01-18 14:56:00
10:16 AM,39.2,24.8,56,30.43,10.0,North,15.0,25.3,N/A,,Clear,360,2013-01-18 15:16:00
10:56 AM,39.2,23.0,52,30.44,10.0,North,13.8,26.5,N/A,,Scattered Clouds,360,2013-01-18 15:56:00
11:16 AM,39.2,23.0,52,30.44,10.0,NNW,20.7,25.3,N/A,,Clear,330,2013-01-18 16:16:00
11:36 AM,39.2,21.2,49,30.45,10.0,North,12.7,21.9,N/A,,Clear,360,2013-01-18 16:36:00
11:56 AM,39.2,21.2,49,30.44,10.0,NW,13.8,21.9,N/A,,Clear,320,2013-01-18 16:56:00
12:16 PM,39.2,21.2,49,30.44,10.0,NW,11.5,19.6,N/A,,Clear,320,2013-01-18 17:16:00
12:36 PM,39.2,23.0,52,30.44,10.0,NNW,10.4,-,N/A,,Scattered Clouds,330,2013-01-18 17:36:00
12:58 PM,39.2,21.2,49,30.44,10.0,NNW,11.5,18.4,N/A,,Scattered Clouds,340,2013-01-18 17:58:00
1:16 PM,39.2,23.0,52,30.44,10.0,North,10.4,17.3,N/A,,Clear,350,2013-01-18 18:16:00
1:36 PM,39.2,21.2,49,30.44,10.0,NNW,11.5,18.4,N/A,,Clear,340,2013-01-18 18:36:00
1:56 PM,39.2,21.2,49,30.45,10.0,NNW,12.7,19.6,N/A,,Clear,330,2013-01-18 18:56:00
2:16 PM,39.2,19.4,45,30.46,10.0,North,10.4,-,N/A,,Clear,350,2013-01-18 19:16:00
2:36 PM,39.2,21.2,49,30.46,10.0,North,8.1,-,N/A,,Clear,350,2013-01-18 19:36:00
2:56 PM,39.2,19.4,45,30.47,10.0,NW,11.5,-,N/A,,Clear,320,2013-01-18 19:56:00
3:16 PM,39.2,19.4,45,30.49,10.0,North,11.5,-,N/A,,Clear,350,2013-01-18 20:16:00
3:36 PM,39.2,19.4,45,30.49,10.0,NW,10.4,17.3,N/A,,Clear,320,2013-01-18 20:36:00
3:56 PM,39.2,19.4,45,30.49,10.0,NNW,8.1,11.5,N/A,,Clear,330,2013-01-18 20:56:00
4:16 PM,39.2,19.4,45,30.50,10.0,NNW,8.1,-,N/A,,Clear,340,2013-01-18 21:16:00
4:36 PM,37.4,17.6,45,30.50,10.0,NNW,6.9,-,N/A,,Clear,340,2013-01-18 21:36:00
4:56 PM,37.4,19.4,48,30.51,10.0,NNW,5.8,-,N/A,,Clear,340,2013-01-18 21:56:00
5:16 PM,35.6,19.4,52,30.51,10.0,Calm,Calm,-,N/A,,Clear,0,2013-01-18 22:16:00
5:36 PM,33.8,19.4,56,30.52,10.0,North,3.5,-,N/A,,Clear,350,2013-01-18 22:36:00
5:56 PM,33.8,21.2,60,30.53,10.0,Calm,Calm,-,N/A,,Clear,0,2013-01-18 22:56:00
6:16 PM,30.2,24.8,80,30.53,10.0,Calm,Calm,-,N/A,,Clear,0,2013-01-18 23:16:00
6:36 PM,30.2,24.8,80,30.54,10.0,Calm,Calm,-,N/A,,Clear,0,2013-01-18 23:36:00
6:56 PM,30.2,24.8,80,30.54,10.0,Calm,Calm,-,N/A,,Clear,0,2013-01-18 23:56:00
7:16 PM,30.2,24.8,80,30.55,10.0,Calm,Calm,-,N/A,,Clear,0,2013-01-19 00:16:00
7:36 PM,30.2,24.8,80,30.54,10.0,Calm,Calm,-,N/A,,Clear,0,2013-01-19 00:36:00
7:56 PM,28.4,24.8,86,30.54,10.0,Calm,Calm,-,N/A,,Clear,0,2013-01-19 00:56:00
8:16 PM,28.4,24.8,86,30.53,10.0,SE,3.5,-,N/A,,Clear,140,2013-01-19 01:16:00
8:56 PM,28.4,24.8,86,30.53,10.0,SE,3.5,-,N/A,,Clear,140,2013-01-19 01:56:00
9:18 PM,28.4,24.8,86,30.54,10.0,SSE,3.5,-,N/A,,Clear,160,2013-01-19 02:18:00
9:56 PM,28.4,24.8,86,30.53,10.0,Calm,Calm,-,N/A,,Clear,0,2013-01-19 02:56:00
10:16 PM,28.4,24.8,86,30.53,10.0,South,3.5,-,N/A,,Clear,170,2013-01-19 03:16:00
10:37 PM,28.4,24.8,86,30.53,10.0,Calm,Calm,-,N/A,,Clear,0,2013-01-19 03:37:00
10:58 PM,28.4,24.8,86,30.52,10.0,SSW,3.5,-,N/A,,Clear,210,2013-01-19 03:58:00
11:16 PM,26.6,24.8,93,30.52,10.0,South,4.6,-,N/A,,Clear,170,2013-01-19 04:16:00
11:36 PM,26.6,24.8,93,30.51,10.0,South,4.6,-,N/A,,Clear,190,2013-01-19 04:36:00
11:56 PM,26.6,24.8,93,30.51,10.0,South,4.6,-,N/A,,Clear,190,2013-01-19 04:56:00